TITAN 3C TRANSTAGE R/B, 2770

Orbit data source: Space-Track

TITAN 3C TRANSTAGE R/B, 2770 is space debris in HEO originally from a launch on Fri, 28 Apr 1967 UTC launched from the Air Force Eastern Test Range (AFETR). Debris objects in space refer to the collection of defunct objects orbiting the Earth. Examples of debris include non-operational satellites, rocket bodies, and fragments generated from explosions, collisions, or faulty payload assembly.

Loading next visibility...
Identifier
2770, 1967-040F
Orbit
HEO
Country
Flag of USUS
Related business
Manufacturer
Martin Marietta
Mission
Spacecraft
Bus & Motor
TRANSTAGE, Unknown motor
Mass
3,103 kg wet, 3,103 kg dry
Launch date (UTC)
1967-04-28 (58 years ago)
Launch vehicle
Unknown
Launch site
Air Force Eastern Test Range (AFETR)
Object type
Payload
Rocket body
Debris
Shape & HBR
Unknown
Radar Cross Section
Large (>1 m²)

Expand to show TLE details & history
Last TLE update: in 2 days

TLE from in 2 days
0 TITAN 3C TRANSTAGE R/B
1  2770U 67040F   25298.69155422 -.00000763  00000-0  00000+0 0  9999
2  2770  17.5307 214.1184 7838976 342.4989   0.5093  0.50946182 22106
Epoch: 2025-10-25T16:35Z
TLE epoch observation values (Epoch: 2025-10-25T16:35:50.284Z)
Latitude
-5.5618°
Longitude
-86.96692°
Altitude
7,720.762 km
Speed
7.108 km/s
True Right ascension
13h 05m 14s
True Declination
-5° 32' 42"
Sunlit
Object was in daylight at epoch
Visualization orbit readout
Latitude
Unknown
Longitude
Unknown
Altitude
Unknown
Speed
Unknown
Apparent Right ascension
Unknown
Apparent Declination
Unknown
Sunlit
N/A
Visualization observer readout
Local Sidereal Time
22:33:49
Azimuth
Unknown
Elevation
Unknown
Doppler factor
Unknown
Orbital elements
Apogee altitude
111,757.25 km
Perigee altitude
7,932.853 km
Semi-major axis
66,223.189 km
Eccentricity
0.7839
Inclination
17.5307°
RAAN
214.1184°
Arg. of periapsis
342.4989°
True anomaly
6.75746°
Mean anomaly
0.5093°
Eccentric anomaly
2.35435°
Mean motion
0.12736 °/min
Orbital period
2,826.67 mins
BSTAR
0
Loading maneuver chart data...
Computing Atmospheric mass density...
Loading historical data...
Loading historical data...
Loading historical data...
Loading historical data...
Loading historical data...
Loading historical data...
Loading historical data...

Documentation

Showing up to 5 results
|